User: anonymous
Location: Bonn
(50.7330°N, 7.1000°E)
Time: 23:21:46
(UTC+02:00)
Language:

Cosmos 1933 Rocket - Orbit

View from above orbital plane
View from above orbital plane
View from above satellite
View from above satellite

Ground track
Ground track

The orbit data is extracted from the following two-line orbital elements,

1 18959U 88020B   14245.14811399  .00000227  00000-0  25051-4 0  3310
2 18959 082.5395 142.8013 0015654 254.5273 262.1554 14.82844980429530
Epoch (UTC): 02 September 2014 03:33:17
Eccentricity: 0.0015654
inclination: 82.5395°
perigee height: 609 km
apogee height: 631 km
right ascension of ascending node: 142.8013°
argument of perigee: 254.5273°
revolutions per day: 14.82844980
mean anomaly at epoch: 262.1554°
orbit number at epoch: 42953

The dashed part of the orbit path shows where the satellite is in the earth's shadow,  

DLR